Weather History for Northeast Philadelphia, PA

Change the Weather History Date:

Saturday, February 16, 2013

  Actual Average Record
Temperature  
Mean Temperature 34 °F -  
Max Temperature 37 °F 42 °F 61 °F (1999)
Min Temperature 30 °F 25 °F 10 °F (2003)
Degree Days  
Heating Degree Days 32    
Moisture  
Dew Point 27 °F    
Average Humidity 74    
Maximum Humidity 93    
Minimum Humidity 47    
Precipitation  
Precipitation 0.03 in - - ()
Sea Level Pressure  
Sea Level Pressure 29.93 in    
Wind  
Wind Speed 8 mph (NNW)    
Max Wind Speed 17 mph    
Max Gust Speed 24 mph    
Visibility 9 miles    
Events Rain    
Averages and records for this station are not official NWS values.
T = Trace of Precipitation, MM = Missing Value Source: NWS Daily Summary

Daily Weather History Graph

Daily Weather History Graph

Search for Another Location

Airport:

Trip Planner

Search our weather history database for the weather conditions in past years. The results will help you decide how hot, cold, wet, or windy it might be!

Date:

Astronomy

Feb. 16, 2013 Rise Set
Actual Time 6:51 AM EST 5:37 PM EST
Civil Twilight 6:23 AM EST 6:05 PM EST
Nautical Twilight 5:52 AM EST 6:36 PM EST
Astronomical Twilight 5:20 AM EST 7:08 PM EST
Moon 10:02 AM EST (2/16) No Moon Set
Length of Visible Light 11h 41m
Length of Day
10h 45m
Waxing Crescent, 39% of the Moon is Illuminated
Feb 16
Waxing Crescent
Feb 17
First Quarter
Feb 25
Full
Mar 4
Last Quarter
Mar 11
New

Hourly Weather History & Observations

Time (EST) Temp. Windchill Dew Point Humidity Pressure Visibility Wind Dir Wind Speed Gust Speed Precip Events Conditions
12:43 AM 37.4 °F 32.1 °F 33.8 °F 87% 30.00 in 8.0 mi NW 6.9 mph - 0.01 in Rain Light Rain
12:54 AM 36.0 °F 28.5 °F 34.0 °F 93% 30.00 in 7.0 mi NNW 10.4 mph - 0.01 in Rain Light Rain
1:54 AM 36.0 °F 31.1 °F 34.0 °F 93% 29.99 in 8.0 mi NW 5.8 mph - 0.01 in   Overcast
2:06 AM 35.6 °F 31.7 °F 33.8 °F 93% 29.99 in 8.0 mi NW 4.6 mph - N/A   Overcast
2:28 AM 35.6 °F 30.7 °F 33.8 °F 93% 29.99 in 8.0 mi NW 5.8 mph - 0.00 in Rain Light Rain
2:54 AM 35.1 °F 29.3 °F 33.1 °F 92% 29.97 in 8.0 mi North 6.9 mph - 0.01 in Rain Light Rain
3:29 AM 35.6 °F 32.8 °F 33.8 °F 93% 29.96 in 7.0 mi North 3.5 mph - 0.00 in   Overcast
3:36 AM 35.6 °F 31.7 °F 30.2 °F 81% 29.97 in 8.0 mi NNW 4.6 mph - 0.00 in   Overcast
3:43 AM 35.6 °F 31.7 °F 33.8 °F 93% 29.96 in 8.0 mi NW 4.6 mph - 0.00 in   Overcast
3:54 AM 35.1 °F 30.1 °F 33.1 °F 92% 29.96 in 8.0 mi North 5.8 mph - 0.00 in   Overcast
4:06 AM 35.6 °F 31.7 °F 33.8 °F 93% 29.96 in 8.0 mi NW 4.6 mph - N/A   Overcast
4:54 AM 35.1 °F 32.2 °F 33.1 °F 92% 29.97 in 8.0 mi NNW 3.5 mph - N/A   Overcast
5:44 AM 35.6 °F 30.7 °F 33.8 °F 93% 29.96 in 10.0 mi NNW 5.8 mph - N/A   Overcast
5:54 AM 36.0 °F 31.1 °F 33.1 °F 89% 29.96 in 10.0 mi NNW 5.8 mph - N/A   Overcast
6:02 AM 35.6 °F 30.7 °F 33.8 °F 93% 29.96 in 10.0 mi North 5.8 mph - N/A   Overcast
6:54 AM 35.1 °F 27.4 °F 32.0 °F 89% 29.96 in 10.0 mi North 10.4 mph - N/A   Overcast
7:54 AM 35.1 °F 26.9 °F 30.0 °F 82% 29.99 in 10.0 mi North 11.5 mph - N/A   Overcast
8:54 AM 35.1 °F 26.9 °F 27.0 °F 72% 29.97 in 10.0 mi North 11.5 mph - N/A   Overcast
9:08 AM 35.6 °F 27.1 °F 26.6 °F 70% 29.96 in 10.0 mi North 12.7 mph - N/A   Overcast
9:36 AM 35.6 °F 27.1 °F 26.6 °F 70% 29.97 in 10.0 mi North 12.7 mph - N/A   Overcast
9:54 AM 36.0 °F 28.5 °F 26.1 °F 67% 29.97 in 10.0 mi North 10.4 mph - N/A   Overcast
10:54 AM 37.0 °F 29.8 °F 25.0 °F 62% 29.96 in 10.0 mi NNE 10.4 mph - N/A   Overcast
11:54 AM 37.9 °F 32.1 °F 21.9 °F 53% 29.94 in 10.0 mi NNE 8.1 mph - N/A   Mostly Cloudy
12:54 PM 37.9 °F 30.5 °F 23.0 °F 55% 29.91 in 10.0 mi North 11.5 mph - N/A   Mostly Cloudy
1:54 PM 37.9 °F 31.5 °F 24.1 °F 57% 29.90 in 10.0 mi NNW 9.2 mph - N/A   Mostly Cloudy
2:54 PM 37.0 °F 29.8 °F 23.0 °F 57% 29.90 in 10.0 mi North 10.4 mph - N/A   Overcast
3:54 PM 36.0 °F 28.5 °F 25.0 °F 64% 29.88 in 10.0 mi North 10.4 mph - N/A   Overcast
4:54 PM 35.1 °F 27.4 °F 24.1 °F 64% 29.88 in 10.0 mi North 10.4 mph - N/A   Overcast
5:54 PM 35.1 °F 27.4 °F 21.9 °F 59% 29.88 in 10.0 mi North 10.4 mph - N/A   Overcast
6:54 PM 34.0 °F 25.5 °F 21.0 °F 59% 29.86 in 10.0 mi NNW 11.5 mph - N/A   Overcast
7:54 PM 33.1 °F 23.0 °F 18.0 °F 54% 29.85 in 10.0 mi North 15.0 mph 23.0 mph N/A   Overcast
8:54 PM 32.0 °F 23.0 °F 16.0 °F 52% 29.85 in 10.0 mi NNW 11.5 mph - N/A   Overcast
9:54 PM 32.0 °F 20.8 °F 16.0 °F 52% 29.83 in 10.0 mi North 17.3 mph 21.9 mph N/A   Overcast
10:54 PM 30.9 °F 20.7 °F 15.1 °F 52% 29.81 in 10.0 mi North 13.8 mph 24.2 mph N/A   Overcast
11:54 PM 30.0 °F 18.7 °F 12.0 °F 47% 29.79 in 10.0 mi North 16.1 mph 20.7 mph N/A   Overcast